Find Starlink 30299

NORAD ID: 57650 Int'l Des: 2023-122 Owner: SPXS Country: US Constellation: starlink operational
LEOCIRCULAR

当前视图

正在加载3D地球...

About Starlink 30299

Starlink 30299 (NORAD 57650) is a starlink constellation satellite (v2 mini) launched Aug 17, 2023 by SPXS of US. It operates in LEO, CIRCULAR orbit with a mass of 730.00 kg.

即将过境

Passes for default location (London). Set your location on the main map for personalized predictions.

高度历史

Loading altitude history...

两行轨道根数

1 57650U 23122U 26265.73687440 .00000189 00000-0 16384-4 0 9997
2 57650 43.0026 59.6078 0001252 271.8647 88.2061 15.27578356172341
Epoch: Sep 22, 2026 • Age: 16 hours

当前状态

高度 486.8 km
远地点 / 近地点 N/A
速度 7.63 km/s
星下点 42.13°N, 17.53°W
发射日期 Aug 17, 2023
运行时间 3.1 years
类型 internet

技术详情

分类 Payload
质量 730.00 kg
干质量 700.00 kg
长度 0.30 m
跨度 29.00 m
形状 ? Box + pan
制造商 SPXS
平台类型 Starlink V2M
阶段状态 In Orbit
所有者/国家 SPXS/US

Most Searched